www.pogodaiklimat.ru

Погода и климат >> Архив погоды >> Россия >> Чукотка >> Билибино


ПОГОДА в Билибино

  • Прогноз погоды в Билибино
  • Монитор погоды в Билибино
  • Климат города

АРХИВ ПОГОДЫ в Билибино

Время (UTC), дата Ветер
(напр.,м/с)
 
Видим.   Явления Облачность Т
(С)
Тd
(С)
f
(%)
Тe
(С)
Тes
(С)
Комфортность P
(гПа)
Po
(гПа)
Тmin
(С)
Tmax
(С)
R
(мм)
R24
(мм)
S
(см)
00 12.12 ЮЗ 2
{7}
20 км снежные кристаллы 10/4 600 м
[Sc Ac trans Cs]
-27.4 -32.8 60 -34 -34 опасность
обморожения
1039.8 1000.3
03 12.12 З 2
{5}
50 км {снег} 10/0
[Ac und]
-27.3 -32.8 59 -34 -34 опасность
обморожения
1040.4 1000.1
06 12.12 штиль 0
{4}
50 км {снег} 8/8 1000 м
[Sc Ci fib]
-32.5 -36.9 65 -33 -33 опасность
обморожения
1040.6 1000.1
09 12.12 штиль 0
{2}
20 км снежные кристаллы 10/5 1000 м
[Sc Cs]
-31.8 -35.4 70 -32 -32 опасность
обморожения
1040.2 999.9 -25.0 0.2
12 12.12 штиль 0
{1}
20 км снежные кристаллы 10/6 1000 м
[Sc Cs]
-29.8 -32.5 77 -30 -30 1039.1 999.1
15 12.12 СВ 1
{1}
20 км снежные кристаллы 10/4 1000 м
[Sc Ac trans Cs]
-32.1 -36.4 65 -36 -36 опасность
обморожения
1038.1 997.8
18 12.12 штиль 0
{1}
20 км снежные кристаллы 10/0
[Ac trans Cs]
-36.8 -41.1 64 -37 -37 опасность
обморожения
1038.4 997.3
21 12.12 штиль 0
{2}
10 км слабый снег 10/0
[As op]
-32.9 -37.1 66 -33 -33 опасность
обморожения
1035.9 995.6 -37.0 0.4 35
00 13.12 штиль 0
{2}
10 км слабый снег 10/0
[As op]
-31.3 -35.0 70 -31 -31 опасность
обморожения
1033.8 993.9
03 13.12 штиль 0
{1}
10 км слабый снег 10/0
[As op]
-30.4 -34.1 70 -30 -30 1031.7 992.2
06 13.12 штиль 0
{1}
10 км слабый снег 10/0
[As op]
-29.6 -33.3 70 -30 -30 1030.0 990.4
09 13.12 штиль 0
{1}
4000 м слабый снег 10/0
[As op]
-29.0 -32.7 70 -29 -29 1027.9 988.5 -29.0 0.7
12 13.12 штиль 0
{2}
4000 м слабый снег 10/0
[As op]
-28.8 -32.5 70 -29 -29 1025.7 986.4
15 13.12 ЮВ 1
{2}
4000 м слабый снег 10/0
[As op]
-28.2 -32.0 70 -32 -32 опасность
обморожения
1023.5 984.5
18 13.12 штиль 0
{3}
4000 м слабый снег 10/0
[As op]
-27.6 -31.3 71 -28 -28 1020.8 981.9
21 13.12 штиль 0
{2}
4000 м слабый снег 10/0
[As op]
-27.5 -31.3 70 -28 -28 1018.7 979.8 -29.7 0.9 36
00 14.12 СВ 1
{2}
10 км снежные кристаллы 10/8 1000 м
[Sc As op]
-27.2 -30.3 75 -31 -31 опасность
обморожения
1016.0 977.4
03 14.12 С 1
{3}
4000 м слабый снег 10/8 1000 м
[Sc As op]
-25.9 -29.1 74 -30 -30 1013.0 974.6
06 14.12 н/о -27.8 1011.4 973.2
09 14.12 С 2
{2}
4000 м слабый снег 10/8 600 м
[Sc As op]
-23.7 -26.8 76 -30 -30 1010.5 972.6 -23.7 1
12 14.12 штиль 0
{3}
4000 м слабый снег 10/6 600 м
[Sc As op]
-23.3 -26.5 75 -23 -23 1009.8 972.0
15 14.12 ЮВ 1
{3}
2000 м снег 10/8 600 м
[Sc As op]
-22.9 -25.4 80 -26 -26 1009.3 971.5
18 14.12 Ю 1
{3}
4000 м слабый снег 10/4 600 м
[Sc As op]
-23.1 -26.3 75 -26 -26 1010.3 972.5
21 14.12 Ю 2
{3}
4000 м слабый снег 10/3 600 м
[Sc As op]
-23.3 -26.5 75 -30 -30 1010.6 972.8 -24.5 2 41
00 15.12 штиль 0
{3}
4000 м слабый снег 10/0
[As op]
-23.0 -26.3 74 -23 -23 1011.4 973.5
03 15.12 Ю 1
{2}
4000 м слабый снег 10/3 1000 м
[Sc As op]
-23.2 -26.4 75 -27 -27 1011.1 973.3
06 15.12 Ю 1
{3}
4000 м слабый снег 10/5 1000 м
[Sc As op]
-23.0 -26.3 74 -26 -26 1011.6 973.7
09 15.12 штиль 0
{2}
4000 м слабый снег 10/5 600 м
[Sc As op]
-23.5 -26.7 75 -24 -24 1011.1 973.3 -22.9 1
12 15.12 штиль 0
{2}
4000 м слабый снег 10/8 600 м
[Sc As op]
-22.7 -25.2 80 -23 -23 1010.7 972.9
15 15.12 ЮВ 1
{3}
4000 м слабый снег 10/3 1000 м
[Sc As op]
-22.4 -24.9 80 -26 -26 1010.1 972.5
18 15.12 Ю 1
{2}
2000 м снег 10/6 1000 м
[Sc As op]
-21.9 -24.4 80 -25 -25 1009.9 972.3
21 15.12 ЮВ 2
{4}
2000 м снег 10/8 600 м
[Sc As op]
-21.0 -23.5 80 -27 -27 1009.7 972.2 -23.6 2 44
00 16.12 ЮЗ 2
{7}
4000 м слабый снег 10/0
[As op]
-18.9 -20.8 85 -25 -25 1009.3 972.1
03 16.12 СВ 7
{10}
10 км снежные кристаллы {метель} 10/0
[Ac As Cs]
-13.7 -18.9 65 -24 -24 1007.5 971.1
06 16.12 СВ 5
{10}
10 км слабый снег {метель} 10/0
[As op]
-13.9 -17.4 75 -22 -22 1008.1 971.7
09 16.12 СВ 5
{10}
20 км снежные кристаллы {метель} 10/0
[Ac trans Cs]
-12.8 -18.0 65 -21 -21 1007.8 971.5 -12.8 0.5
12 16.12 СВ 4
{8}
10 км слабый снег {метель} 10/0
[As op]
-12.4 -17.6 65 -20 -20 1008.1 971.9
15 16.12 СВ 5
{9}
20 км снежные кристаллы 10/0
[Ac As Cs]
-13.1 -19.2 60 -21 -21 1008.2 971.9
18 16.12 СВ 6
{10}
20 км снежные кристаллы {метель} 10/0
[Ac As Cs]
-13.6 -18.8 65 -23 -23 1008.6 972.2
21 16.12 СВ 4
{11}
20 км снежные кристаллы {метель} 10/4 1000 м
[Sc Ac As Cs]
-13.8 -18.1 70 -21 -21 1009.5 973.0 -13.9 0.0 42
00 17.12 СВ 4
{7}
20 км снежные кристаллы {метель} 10/4 600 м
[Sc Ac trans Cs]
-14.5 -19.6 65 -22 -22 1009.8 973.3 -14.6
03 17.12 ЮЗ 1
{7}
20 км снежные кристаллы 10/3 600 м
[Sc Ac trans Cs]
-21.4 -23.9 80 -25 -25 1011.5 973.9
06 17.12 штиль 0
{2}
10 км слабый снег 10/0
[As op]
-22.7 -25.2 80 -23 -23 1012.5 974.6
09 17.12 штиль 0
{1}
10 км слабый снег 10/0
[As op]
-23.0 -25.5 80 -23 -23 1013.4 975.5 -13.4 0.3
12 17.12 штиль 0
{2}
10 км слабый снег 10/0
[As op]
-26.3 -29.4 75 -26 -26 1014.8 976.4
15 17.12 штиль 0
{2}
20 км {снег} ясно -35.7 -40.0 64 -36 -36 опасность
обморожения
1016.6 976.5
18 17.12 штиль 0
{1}
20 км {снег} ясно -38.3 -43.0 61 -38 -38 опасность
обморожения
1017.3 976.9
21 17.12 штиль 0
{2}
20 км ясно -38.8 -43.8 59 -39 -39 опасность
обморожения
1017.2 976.6 -39.1 0.0 41
00 18.12 СВ 1
{2}
50 км 8/3 600 м
[Sc Ci sp]
-38.9 -43.8 60 -44 -44 опасность
обморожения
1016.9 976.4 -40.0
03 18.12 штиль 0
{2}
50 км 9/4 600 м
[Sc Ac trans]
-35.8 -40.0 65 -36 -36 опасность
обморожения
1015.0 975.0
06 18.12 З 1
{2}
20 км ясно -36.7 -41.1 64 -42 -42 опасность
обморожения
1013.8 973.7
09 18.12 штиль 0
{2}
20 км ясно -38.6 -43.4 60 -39 -39 опасность
обморожения
1013.4 973.0 -33.4
12 18.12 штиль 0
{2}
20 км ясно -37.9 -43.0 59 -38 -38 опасность
обморожения
1011.6 971.4
15 18.12 штиль 0
{3}
20 км ясно -38.9 -43.8 60 -39 -39 опасность
обморожения
1009.3 969.0
18 18.12 штиль 0
{4}
20 км ясно -32.5 -36.9 65 -33 -33 опасность
обморожения
1005.7 966.6
21 18.12 штиль 0
{2}
20 км 4/4 600 м
[Sc]
-36.0 -40.4 64 -36 -36 опасность
обморожения
1004.6 965.0 -39.5 41

 

Местоположение метеостанции Билибино (Чукотка, Россия): широта 68.05 долгота 166.40 высота над уровнем моря 280 м.

В архиве по умолчанию представлена погода в Билибино за последнюю неделю. Архивные данные за месяц целиком и за предыдущие месяцы, начиная с января 2011 года, Вы можете получить, выбрав интересующий диапазон дат из раскрывающегося списка и нажав кнопку "Ввод!".

Внимание! Время в таблицах - всемирное. Для получения местного времени необходимо прибавить поправку, которая в Билибино равна 12 ч.

Смотрите также архив погоды в соседних городах и на ближайших метеорологических станциях:

Погода на Островном (Чукотка, Россия) (96 км)
Погода в Илирнее (Чукотка, Россия) (109 км)
Погода в Раучуе (Чукотка, Россия) (161 км)
Погода в Баимке (Чукотка, Россия) (194 км)
Погода в Чауне (Чукотка, Россия) (198 км)
Погода в Анюйске (Чукотка, Россия) (205 км)
Погода на Айон Острове (Чукотка, Россия) (217 км)
Погода в Константиновской (Чукотка, Россия) (220 км)
Погода в Черском (Якутия, Россия) (222 км)
Погода в Певеке (Чукотка, Россия) (238 км)

Пояснения к столбцам:

Ветер - указаны скорость ветра в м/с - средняя за 10 мин, порывы в срок и между сроками (в фигурных скобках) и направление, откуда дует ветер: С - северный, СВ - северо-восточный, В - восточный, ЮВ - юго-восточный, Ю - южный, ЮЗ - юго-западный, З - западный, СЗ - северо-западный.
Видимость - горизонтальная дальность видимости в метрах или километрах. При видимости от 1 до 10 км при отсутствии осадков обычно наблюдается дымка, при ухудшении видимости до 1 км и менее - туман. В сухую погоду видимость может ухудшаться дымом, пылью или мглою.
Явления - указаны атмосферные явления, наблюдавшиеся в срок или в последний час перед сроком; фигурными скобками обозначены явления, наблюдавшиеся между сроками (за 1-3 часа до срока); квадратными скобками обозначены град или гололедные отложения с указанием их диаметра в мм.
Облачность - указаны через наклонную черту общая и нижняя облачность в баллах и высота нижней границы облаков в метрах; квадратными скобками обозначены формы облаков: Ci - перистые, Cs - перисто-слоистые, Cc - перисто-кучевые, Ac - высококучевые, As - высокослоистые, Sc - слоисто-кучевые, Ns - слоисто-дождевые, Cu - кучевые, Cb - кучево-дождевые. Подробнее классификацию облаков см. в Атласе облаков (PDF).
T - Температура воздуха - температура, измеренная на высоте 2 м над землей.
Td - Температура точки росы - температура, при понижении до которой содержащийся в воздухе водяной пар достигнет насыщения.
f - Относительная влажность воздуха - влажноcть воздуха, измеренная на высоте 2 м над землей.
Te - Эффективная температура - температура, которую ощущает одетый по сезону человек в тени. Характеристика душности погоды. При расчете учитывается влияние влажности воздуха и скорости ветра на теплоощущения человека.
Tes - Эффективная температура на солнце - температура, которую ощущает человек, с поправкой на солнечный нагрев. Характеристика знойности погоды. Зависит от высоты солнца над горизонтом, облачности и скорости ветра. Ночью, в пасмурную погоду, а также при ветре 12 м/с и более поправка равна нулю.
P - Атмосферное давление - приведенное к уровню моря атмосферное давление.
Po - Атмосферное давление - измеренное на уровне метеостанции атмосферное давление.
Tmin - Минимальная температура - минимум температуры воздуха на высоте 2 м над землей.
Tmax - Максимальная температура - максимум температуры воздуха на высоте 2 м над землей.
R - Количество осадков - Количество выпавших осадков за период времени, мм. При наведении курсора мыши на число - период времени, за который выпало указанное количество осадков.
R24 - Количество осадков - Количество выпавших осадков за 24 часа, мм.
S - Снежный покров - Высота снежного покрова, см. При наведении курсора мыши на число - состояние снежного покрова и степень покрытия местности в баллах.